星链-34385 (STARLINK-34385)

导读 | 豆包AI

STARLINK-34385是美国SpaceX星链星座的卫星,于2025年6月13日发射,作为星链卫星互联网计划的组成部分,承担全球范围低延迟宽带互联网服务覆盖任务,运行于近地轨道,依托规模化星座组网,为全球不同地区用户提供网络接入,支撑海事、航空、偏远区域等场景的网络使用需求。

基本信息
目录编号:
64352
目录名称:
STARLINK-34385
国际标识:
2025-126J
轨道中心:
EARTH
卫星名称:
星链-34385
卫星全名:
星链-34385 (STARLINK-34385)
卫星状态:
在轨 (已飞行320 天)
发射日期:
2025-06-13 UTC
国别 :
美国 (US)
星等 :
--
轨道信息
数据来源 国际轨道数据
星历时间: 2026-04-29T11:03:14+0800
11小时前
查看轨道信息
半长轴: 6950.183km
偏心率: 0.0002742
轨道倾角: 70.000°
近地点辐角 268.952°
升交点赤经 267.416°
平近点角 91.133°
近地点: 570.14km
远地点: 573.952km
周期: 96.107分钟
每日圈数: 14.983333
详细信息
固有亮度:
5
最大亮度:
2.5
卫星平台:
Starlink V1.0
覆盖范围:
全球
运营商:
太空探索技术公司
运营商所在国:
美国
制造商(研发单位):
太空探索技术公司
制造商所在国:
美国
使用方式:
暂无
卫星简介
Starlink 计划是 SpaceX 推出的全球卫星互联网项目,通过发射低轨道卫星,为全球尤其是偏远地区提供高速、低延迟的互联网服务。自 2019 年起,Starlink 已部署数千颗卫星,旨在缩小全球数字鸿沟,推动互联网普及。该项目还为军事、航空等行业提供通信支持,带来广泛经济效益。
2D轨道图
3D轨道图
轨道高度分析图
轨道倾角分析图
轨道综合分析图
查看轨道综合分析图